Belize, Belize

12:24 AM CST on October 19, 2017 (GMT -0600)
Philip S W Goldson International

Weather History for MZBZ - October, 2011

Change the Weather History Date:

Sunday, October 30, 2011

  Actual Average Record
Temperature  
Mean Temperature 78 °F -  
Max Temperature 86 °F 85 °F 90 °F (2016)
Min Temperature 71 °F 71 °F 68 °F (2012)
Cooling Degree Days 14    
Growing Degree Days 28 (Base 50)    
Moisture  
Dew Point 70 °F    
Average Humidity 77    
Maximum Humidity 94    
Minimum Humidity 55    
Precipitation  
Precipitation 0.01 in 0.24 in - ()
Sea Level Pressure  
Sea Level Pressure 29.95 in    
Wind  
Wind Speed 7 mph ()    
Max Wind Speed 13 mph    
Max Gust Speed -    
Visibility 6.7 miles    
Events Rain    
Averages and records for this station are not official NWS values.
T = Trace of Precipitation, MM = Missing Value Source: Averaged Metar Reports

Daily Weather History Graph

Daily Weather History Graph

Search for Another Location

Airport or City:

Trip Planner

Search our weather history database for the weather conditions in past years. The results will help you decide how hot, cold, wet, or windy it might be!

Date:

Astronomy

Oct. 30, 2011 Rise Set
Actual Time 5:50 AM CST 5:22 PM CST
Civil Twilight 5:28 AM CST 5:44 PM CST
Nautical Twilight 5:02 AM CST 6:10 PM CST
Astronomical Twilight 4:37 AM CST 6:36 PM CST
Moon 9:46 AM CST (10/30) 9:13 PM CST (10/30)
Length of Visible Light 12h 16m
Length of Day
11h 31m
Waxing Crescent, 20% of the Moon is Illuminated
Oct 30
Waxing Crescent
Nov 2
First Quarter
Nov 10
Full
Nov 18
Last Quarter
Nov 25
New

Hourly Weather History & Observations

Time (CST) Temp. Heat Index Dew Point Humidity Pressure Visibility Wind Dir Wind Speed Gust Speed Precip Events Conditions
12:00 AM 72 °F - 70 °F 93% 29.97 in 5 mi North 9.2 mph - - Rain Light Rain
12:00 AM 71.6 °F - 69.8 °F 94% 29.95 in 5.0 mi North 9.2 mph - N/A Rain Rain
3:00 AM 72 °F - 69 °F 87% 29.92 in 12 mi WNW 6.9 mph - -   Partly Cloudy
3:00 AM 71.6 °F - 69.8 °F 94% 29.92 in 6.2 mi WNW 6.9 mph - N/A   Mostly Cloudy
6:00 AM 72 °F - 71 °F 94% 29.96 in 12 mi WNW 5.8 mph - -   Partly Cloudy
6:00 AM 71.6 °F - 69.8 °F 94% 29.95 in 6.2 mi WNW 5.8 mph - N/A   Mostly Cloudy
7:00 AM 73.4 °F - 71.6 °F 94% 29.98 in 6.2 mi WNW 9.2 mph - N/A   Mostly Cloudy
8:00 AM 75.2 °F - 71.6 °F 89% 29.98 in 6.2 mi WNW 11.5 mph - N/A   Mostly Cloudy
9:00 AM 77.0 °F - 71.6 °F 83% 30.01 in 6.2 mi NW 10.4 mph - N/A   Mostly Cloudy
10:00 AM 80.6 °F 83.9 °F 69.8 °F 70% 30.00 in 6.2 mi NW 11.5 mph - N/A   Scattered Clouds
11:00 AM 82.4 °F 87.2 °F 71.6 °F 70% 29.99 in 6.2 mi WNW 10.4 mph - N/A   Mostly Cloudy
12:00 PM 84.2 °F 88.4 °F 69.8 °F 62% 29.95 in 6.2 mi WNW 10.4 mph - N/A   Scattered Clouds
1:00 PM 86.0 °F 91.8 °F 71.6 °F 62% 29.92 in 6.2 mi WNW 9.2 mph - N/A   Scattered Clouds
2:00 PM 86.0 °F 89.4 °F 68.0 °F 55% 29.90 in 6.2 mi NW 12.7 mph - N/A   Partly Cloudy
3:00 PM 86.0 °F 89.4 °F 68.0 °F 55% 29.90 in 6.2 mi WNW 11.5 mph - N/A   Mostly Cloudy
4:00 PM 84.2 °F 87.3 °F 68.0 °F 58% 29.91 in 6.2 mi NNW 8.1 mph - N/A   Mostly Cloudy
5:00 PM 82.4 °F 85.4 °F 68.0 °F 62% 29.92 in 6.2 mi NW 5.8 mph - N/A   Mostly Cloudy
6:00 PM 80.6 °F 83.9 °F 69.8 °F 70% 29.93 in 6.2 mi WNW 4.6 mph - N/A   Mostly Cloudy
9:00 PM 78.8 °F - 69.8 °F 74% 29.99 in 6.2 mi WNW 4.6 mph - N/A   Mostly Cloudy